Data supplied by UK-AIR on 29/3/2019
All Data GMT hour ending 
Status: R =Ratified P=Provisional,P*=As supplied
,,Ladybower,,,,,,,,,,,,,,,,,,,,,,,
Date,time,"Nitric oxide",status,unit,"Nitrogen dioxide",status,unit,"Nitrogen oxides as nitrogen dioxide",status,unit,"Ozone",status,unit,"Sulphur dioxide",status,unit
 
01-01-2018,01:00,0.61226,R,ugm-3,2.16898,R,ugm-3,3.10777,R,ugm-3,67.65423,R,ugm-3,4.00423,R,ugm-3
01-01-2018,02:00,0.68879,R,ugm-3,0.20251,R,ugm-3,1.25865,R,ugm-3,71.77868,R,ugm-3,3.73122,R,ugm-3
01-01-2018,03:00,0.45920,R,ugm-3,0.27486,R,ugm-3,0.97895,R,ugm-3,72.14456,R,ugm-3,3.27619,R,ugm-3
01-01-2018,04:00,0.52479,R,ugm-3,-0.15204,R,ugm-3,0.65263,R,ugm-3,73.39187,R,ugm-3,2.59365,R,ugm-3
01-01-2018,05:00,0.65599,R,ugm-3,-0.07351,R,ugm-3,0.93233,R,ugm-3,74.58929,R,ugm-3,2.25238,R,ugm-3
01-01-2018,06:00,0.88559,R,ugm-3,-0.28571,R,ugm-3,1.07218,R,ugm-3,73.74112,R,ugm-3,3.13968,R,ugm-3
01-01-2018,07:00,0.91839,R,ugm-3,-0.24277,R,ugm-3,1.16541,R,ugm-3,72.14456,R,ugm-3,3.07143,R,ugm-3
01-01-2018,08:00,0.81999,R,ugm-3,-0.04527,R,ugm-3,1.21203,R,ugm-3,72.24434,R,ugm-3,3.48096,R,ugm-3
01-01-2018,09:00,0.68879,R,ugm-3,-0.21704,R,ugm-3,0.83910,R,ugm-3,71.14671,R,ugm-3,3.27619,R,ugm-3
01-01-2018,10:00,0.62319,R,ugm-3,0.20986,R,ugm-3,1.16541,R,ugm-3,70.29853,R,ugm-3,3.48096,R,ugm-3
01-01-2018,11:00,0.78719,R,ugm-3,1.31028,R,ugm-3,2.51729,R,ugm-3,65.95789,R,ugm-3,3.27619,R,ugm-3
01-01-2018,12:00,0.68879,R,ugm-3,1.13484,R,ugm-3,2.19097,R,ugm-3,64.96004,R,ugm-3,2.79841,R,ugm-3
01-01-2018,13:00,0.65599,R,ugm-3,1.46483,R,ugm-3,2.47067,R,ugm-3,67.45466,R,ugm-3,3.34445,R,ugm-3
01-01-2018,14:00,0.81999,R,ugm-3,1.67954,R,ugm-3,2.93684,R,ugm-3,67.85380,R,ugm-3,3.13968,R,ugm-3
01-01-2018,15:00,0.62319,R,ugm-3,1.79482,R,ugm-3,2.75037,R,ugm-3,66.80606,R,ugm-3,2.66191,R,ugm-3
01-01-2018,16:00,0.52479,R,ugm-3,1.38630,R,ugm-3,2.19097,R,ugm-3,68.50240,R,ugm-3,2.93492,R,ugm-3
01-01-2018,17:00,0.49200,R,ugm-3,2.46215,R,ugm-3,3.21654,R,ugm-3,73.19230,R,ugm-3,3.48096,R,ugm-3
01-01-2018,18:00,0.78719,R,ugm-3,2.24261,R,ugm-3,3.44962,R,ugm-3,75.33768,R,ugm-3,2.73016,R,ugm-3
01-01-2018,19:00,0.42640,R,ugm-3,2.60935,R,ugm-3,3.26315,R,ugm-3,68.25294,R,ugm-3,1.84286,R,ugm-3
01-01-2018,20:00,0.68879,R,ugm-3,2.16040,R,ugm-3,3.21654,R,ugm-3,68.95144,R,ugm-3,1.36508,R,ugm-3
01-01-2018,21:00,0.72159,R,ugm-3,1.17778,R,ugm-3,2.28421,R,ugm-3,72.39402,R,ugm-3,1.09207,R,ugm-3
01-01-2018,22:00,0.55759,R,ugm-3,2.08187,R,ugm-3,2.93684,R,ugm-3,71.19660,R,ugm-3,0.81905,R,ugm-3
01-01-2018,23:00,0.68879,R,ugm-3,1.69424,R,ugm-3,2.75037,R,ugm-3,74.38972,R,ugm-3,0.68254,R,ugm-3
01-01-2018,24:00,0.65599,R,ugm-3,1.74453,R,ugm-3,2.75037,R,ugm-3,71.74542,R,ugm-3,0.47778,R,ugm-3
02-01-2018,01:00,0.70059,R,ugm-3,1.54152,R,ugm-3,2.61574,R,ugm-3,70.11559,R,ugm-3,1.18348,R,ugm-3
02-01-2018,02:00,1.00709,R,ugm-3,1.25839,R,ugm-3,2.80257,R,ugm-3,68.78513,R,ugm-3,1.00140,R,ugm-3
02-01-2018,03:00,0.68964,R,ugm-3,1.18463,R,ugm-3,2.24206,R,ugm-3,68.55230,R,ugm-3,1.22900,R,ugm-3
02-01-2018,04:00,0.52544,R,ugm-3,1.81007,R,ugm-3,2.61574,R,ugm-3,66.55660,R,ugm-3,2.11660,R,ugm-3
02-01-2018,05:00,0.68964,R,ugm-3,2.02540,R,ugm-3,3.08283,R,ugm-3,63.26369,R,ugm-3,1.70694,R,ugm-3
02-01-2018,06:00,0.52544,R,ugm-3,2.51072,R,ugm-3,3.31638,R,ugm-3,62.96434,R,ugm-3,1.70694,R,ugm-3
02-01-2018,07:00,0.49260,R,ugm-3,1.90714,R,ugm-3,2.66245,R,ugm-3,66.35703,R,ugm-3,1.36555,R,ugm-3
02-01-2018,08:00,0.68964,R,ugm-3,0.43727,R,ugm-3,1.49471,R,ugm-3,67.00563,R,ugm-3,1.22900,R,ugm-3
02-01-2018,09:00,0.52544,R,ugm-3,3.35149,R,ugm-3,4.15715,R,ugm-3,60.56950,R,ugm-3,1.84349,R,ugm-3
02-01-2018,10:00,1.14940,R,ugm-3,12.15706,R,ugm-3,13.91945,R,ugm-3,47.79702,R,ugm-3,4.84770,R,ugm-3
02-01-2018,11:00,1.31360,R,ugm-3,19.00515,R,ugm-3,21.01930,R,ugm-3,39.51486,R,ugm-3,3.75526,R,ugm-3
02-01-2018,12:00,1.54348,R,ugm-3,23.13679,R,ugm-3,25.50342,R,ugm-3,37.26970,R,ugm-3,3.34560,R,ugm-3
02-01-2018,13:00,0.98520,R,ugm-3,14.09038,R,ugm-3,15.60100,R,ugm-3,49.24390,R,ugm-3,3.00421,R,ugm-3
02-01-2018,14:00,1.14940,R,ugm-3,9.96171,R,ugm-3,11.72410,R,ugm-3,52.58670,R,ugm-3,2.73110,R,ugm-3
02-01-2018,15:00,1.08372,R,ugm-3,5.06450,R,ugm-3,6.72618,R,ugm-3,64.81036,R,ugm-3,3.96010,R,ugm-3
02-01-2018,16:00,0.82100,R,ugm-3,3.13185,R,ugm-3,4.39070,R,ugm-3,68.05337,R,ugm-3,3.20904,R,ugm-3
02-01-2018,17:00,0.55828,R,ugm-3,1.85314,R,ugm-3,2.70916,R,ugm-3,71.99488,R,ugm-3,3.14076,R,ugm-3
02-01-2018,18:00,0.78816,R,ugm-3,1.68750,R,ugm-3,2.89599,R,ugm-3,74.98843,R,ugm-3,2.86766,R,ugm-3
02-01-2018,19:00,0.55828,R,ugm-3,1.43275,R,ugm-3,2.28877,R,ugm-3,75.48735,R,ugm-3,2.52627,R,ugm-3
02-01-2018,20:00,0.62396,R,ugm-3,2.92017,R,ugm-3,3.87689,R,ugm-3,73.34198,R,ugm-3,4.50631,R,ugm-3
02-01-2018,21:00,0.75532,R,ugm-3,4.63385,R,ugm-3,5.79199,R,ugm-3,68.60219,R,ugm-3,6.21325,R,ugm-3
02-01-2018,22:00,0.68964,R,ugm-3,2.81946,R,ugm-3,3.87689,R,ugm-3,69.89939,R,ugm-3,5.66703,R,ugm-3
02-01-2018,23:00,0.49260,R,ugm-3,1.25320,R,ugm-3,2.00851,R,ugm-3,73.04262,R,ugm-3,6.28153,R,ugm-3
02-01-2018,24:00,0.55828,R,ugm-3,1.38604,R,ugm-3,2.24206,R,ugm-3,75.73682,R,ugm-3,5.87186,R,ugm-3
03-01-2018,01:00,0.56993,R,ugm-3,0.81102,R,ugm-3,1.68490,R,ugm-3,74.10699,R,ugm-3,3.82486,R,ugm-3
03-01-2018,02:00,0.78913,R,ugm-3,0.72453,R,ugm-3,1.93451,R,ugm-3,79.09624,R,ugm-3,4.37126,R,ugm-3
03-01-2018,03:00,0.75625,R,ugm-3,0.43173,R,ugm-3,1.59129,R,ugm-3,81.37467,R,ugm-3,4.50787,R,ugm-3
03-01-2018,04:00,0.75625,R,ugm-3,0.52534,R,ugm-3,1.68490,R,ugm-3,82.77166,R,ugm-3,5.05427,R,ugm-3
03-01-2018,05:00,0.55897,R,ugm-3,0.40661,R,ugm-3,1.26367,R,ugm-3,79.47875,R,ugm-3,4.78107,R,ugm-3
03-01-2018,06:00,0.62473,R,ugm-3,1.05462,R,ugm-3,2.01252,R,ugm-3,76.83445,R,ugm-3,4.37126,R,ugm-3
03-01-2018,07:00,0.55897,R,ugm-3,1.85749,R,ugm-3,2.71456,R,ugm-3,75.63703,R,ugm-3,3.75656,R,ugm-3
03-01-2018,08:00,0.95353,R,ugm-3,2.28216,R,ugm-3,3.74421,R,ugm-3,75.03832,R,ugm-3,2.80034,R,ugm-3
03-01-2018,09:00,0.72337,R,ugm-3,3.80514,R,ugm-3,4.91428,R,ugm-3,72.74327,R,ugm-3,3.27845,R,ugm-3
03-01-2018,10:00,0.62473,R,ugm-3,4.51801,R,ugm-3,5.47591,R,ugm-3,72.64348,R,ugm-3,2.66374,R,ugm-3
03-01-2018,11:00,0.65761,R,ugm-3,3.99957,R,ugm-3,5.00789,R,ugm-3,74.83875,R,ugm-3,2.18563,R,ugm-3
03-01-2018,12:00,0.69049,R,ugm-3,3.76195,R,ugm-3,4.82068,R,ugm-3,73.74112,R,ugm-3,2.25393,R,ugm-3
03-01-2018,13:00,0.69049,R,ugm-3,4.27678,R,ugm-3,5.33551,R,ugm-3,73.24219,R,ugm-3,2.04903,R,ugm-3
03-01-2018,14:00,0.62473,R,ugm-3,3.67557,R,ugm-3,4.63347,R,ugm-3,73.49165,R,ugm-3,1.84413,R,ugm-3
03-01-2018,15:00,0.62473,R,ugm-3,4.47121,R,ugm-3,5.42911,R,ugm-3,71.19660,R,ugm-3,1.91243,R,ugm-3
03-01-2018,16:00,0.42744,R,ugm-3,5.05452,R,ugm-3,5.70993,R,ugm-3,70.09896,R,ugm-3,2.18563,R,ugm-3
03-01-2018,17:00,0.52609,R,ugm-3,3.63960,R,ugm-3,4.44626,R,ugm-3,70.79746,R,ugm-3,1.43432,R,ugm-3
03-01-2018,18:00,0.75625,R,ugm-3,3.05268,R,ugm-3,4.21224,R,ugm-3,70.89724,R,ugm-3,1.91243,R,ugm-3
03-01-2018,19:00,0.69049,R,ugm-3,3.15351,R,ugm-3,4.21224,R,ugm-3,71.39617,R,ugm-3,1.57092,R,ugm-3
03-01-2018,20:00,0.69049,R,ugm-3,2.68549,R,ugm-3,3.74421,R,ugm-3,71.49595,R,ugm-3,0.75131,R,ugm-3
03-01-2018,21:00,0.52609,R,ugm-3,2.70355,R,ugm-3,3.51020,R,ugm-3,71.29638,R,ugm-3,0.47811,R,ugm-3
03-01-2018,22:00,0.75625,R,ugm-3,2.44424,R,ugm-3,3.60381,R,ugm-3,70.99703,R,ugm-3,1.02452,R,ugm-3
03-01-2018,23:00,0.72337,R,ugm-3,2.40105,R,ugm-3,3.51020,R,ugm-3,70.34843,R,ugm-3,1.36602,R,ugm-3
03-01-2018,24:00,0.62473,R,ugm-3,1.89706,R,ugm-3,2.85496,R,ugm-3,69.99918,R,ugm-3,1.09282,R,ugm-3
04-01-2018,01:00,0.52673,R,ugm-3,1.56841,R,ugm-3,2.37605,R,ugm-3,67.98685,R,ugm-3,0.72879,R,ugm-3
04-01-2018,02:00,0.82302,R,ugm-3,1.27043,R,ugm-3,2.53237,R,ugm-3,67.38814,R,ugm-3,1.45759,R,ugm-3
04-01-2018,03:00,0.72425,R,ugm-3,1.23428,R,ugm-3,2.34479,R,ugm-3,65.90799,R,ugm-3,0.68325,R,ugm-3
04-01-2018,04:00,0.82302,R,ugm-3,0.75458,R,ugm-3,2.01652,R,ugm-3,65.45896,R,ugm-3,1.50314,R,ugm-3
04-01-2018,05:00,0.69133,R,ugm-3,0.53443,R,ugm-3,1.59446,R,ugm-3,68.40262,R,ugm-3,1.63979,R,ugm-3
04-01-2018,06:00,0.59257,R,ugm-3,0.31070,R,ugm-3,1.21929,R,ugm-3,67.95359,R,ugm-3,1.16152,R,ugm-3
04-01-2018,07:00,0.79010,R,ugm-3,1.46160,R,ugm-3,2.67306,R,ugm-3,59.67143,R,ugm-3,1.57146,R,ugm-3
04-01-2018,08:00,0.65841,R,ugm-3,3.30486,R,ugm-3,4.31441,R,ugm-3,59.77122,R,ugm-3,1.02487,R,ugm-3
04-01-2018,09:00,0.46089,R,ugm-3,1.40362,R,ugm-3,2.11031,R,ugm-3,70.24864,R,ugm-3,1.77644,R,ugm-3
04-01-2018,10:00,0.65841,R,ugm-3,3.02349,R,ugm-3,4.03304,R,ugm-3,69.30068,R,ugm-3,2.39136,R,ugm-3
04-01-2018,11:00,0.69133,R,ugm-3,6.67778,R,ugm-3,7.73781,R,ugm-3,64.31143,R,ugm-3,2.32303,R,ugm-3
04-01-2018,12:00,1.15222,R,ugm-3,8.17519,R,ugm-3,9.94191,R,ugm-3,59.87100,R,ugm-3,3.27958,R,ugm-3
04-01-2018,13:00,0.98762,R,ugm-3,4.76971,R,ugm-3,6.28404,R,ugm-3,65.60864,R,ugm-3,2.86963,R,ugm-3
04-01-2018,14:00,0.79010,R,ugm-3,2.30572,R,ugm-3,3.51719,R,ugm-3,68.85165,R,ugm-3,2.66466,R,ugm-3
04-01-2018,15:00,0.62549,R,ugm-3,5.55944,R,ugm-3,6.51852,R,ugm-3,63.51315,R,ugm-3,2.66466,R,ugm-3
04-01-2018,16:00,0.72425,R,ugm-3,7.37763,R,ugm-3,8.48814,R,ugm-3,67.30498,R,ugm-3,1.77644,R,ugm-3
04-01-2018,17:00,0.79010,R,ugm-3,4.83810,R,ugm-3,6.04956,R,ugm-3,73.09251,R,ugm-3,1.29817,R,ugm-3
04-01-2018,18:00,0.69133,R,ugm-3,2.69164,R,ugm-3,3.75166,R,ugm-3,78.83015,R,ugm-3,1.36649,R,ugm-3
04-01-2018,19:00,0.69133,R,ugm-3,6.16192,R,ugm-3,7.22195,R,ugm-3,73.99058,R,ugm-3,1.50314,R,ugm-3
04-01-2018,20:00,0.72425,R,ugm-3,4.84526,R,ugm-3,5.95577,R,ugm-3,73.44176,R,ugm-3,1.77644,R,ugm-3
04-01-2018,21:00,0.62549,R,ugm-3,5.88771,R,ugm-3,6.84678,R,ugm-3,69.45036,R,ugm-3,2.18638,R,ugm-3
04-01-2018,22:00,0.59257,R,ugm-3,7.15748,R,ugm-3,8.06608,R,ugm-3,63.96219,R,ugm-3,2.18638,R,ugm-3
04-01-2018,23:00,0.72425,R,ugm-3,7.37763,R,ugm-3,8.48814,R,ugm-3,62.66498,R,ugm-3,2.52801,R,ugm-3
04-01-2018,24:00,0.79010,R,ugm-3,4.04087,R,ugm-3,5.25233,R,ugm-3,65.70842,R,ugm-3,2.25471,R,ugm-3
05-01-2018,01:00,0.74711,R,ugm-3,3.11477,R,ugm-3,4.26033,R,ugm-3,64.12849,R,ugm-3,3.82749,R,ugm-3
05-01-2018,02:00,0.79106,R,ugm-3,1.84133,R,ugm-3,3.05428,R,ugm-3,63.59631,R,ugm-3,4.28314,R,ugm-3
05-01-2018,03:00,0.72514,R,ugm-3,1.98940,R,ugm-3,3.10127,R,ugm-3,56.62799,R,ugm-3,3.48575,R,ugm-3
05-01-2018,04:00,0.46145,R,ugm-3,1.92383,R,ugm-3,2.63138,R,ugm-3,54.13336,R,ugm-3,3.75914,R,ugm-3
05-01-2018,05:00,0.49441,R,ugm-3,2.01426,R,ugm-3,2.77235,R,ugm-3,51.78842,R,ugm-3,3.41740,R,ugm-3
05-01-2018,06:00,0.75810,R,ugm-3,2.69069,R,ugm-3,3.85309,R,ugm-3,54.03358,R,ugm-3,4.10088,R,ugm-3
05-01-2018,07:00,0.59330,R,ugm-3,3.64821,R,ugm-3,4.55792,R,ugm-3,49.44347,R,ugm-3,3.69079,R,ugm-3
05-01-2018,08:00,0.75810,R,ugm-3,6.77872,R,ugm-3,7.94113,R,ugm-3,45.00304,R,ugm-3,3.48575,R,ugm-3
05-01-2018,09:00,0.56034,R,ugm-3,7.64582,R,ugm-3,8.50499,R,ugm-3,38.16776,R,ugm-3,3.55410,R,ugm-3
05-01-2018,10:00,0.79106,R,ugm-3,7.94989,R,ugm-3,9.16284,R,ugm-3,52.13766,R,ugm-3,4.03253,R,ugm-3
05-01-2018,11:00,0.88995,R,ugm-3,3.85121,R,ugm-3,5.21577,R,ugm-3,58.02498,R,ugm-3,4.10088,R,ugm-3
05-01-2018,12:00,0.62626,R,ugm-3,4.91336,R,ugm-3,5.87361,R,ugm-3,52.83616,R,ugm-3,4.16923,R,ugm-3
05-01-2018,13:00,1.18659,R,ugm-3,7.43740,R,ugm-3,9.25681,R,ugm-3,57.37638,R,ugm-3,3.82749,R,ugm-3
05-01-2018,14:00,2.40615,R,ugm-3,19.10024,R,ugm-3,22.78962,R,ugm-3,45.90110,R,ugm-3,4.30592,R,ugm-3
05-01-2018,15:00,1.31844,R,ugm-3,8.92684,R,ugm-3,10.94841,R,ugm-3,56.27874,R,ugm-3,4.03253,R,ugm-3
05-01-2018,16:00,1.08771,R,ugm-3,8.19987,R,ugm-3,9.86767,R,ugm-3,54.23315,R,ugm-3,3.62245,R,ugm-3
05-01-2018,17:00,0.79106,R,ugm-3,8.51376,R,ugm-3,9.72670,R,ugm-3,50.14196,R,ugm-3,2.18714,R,ugm-3
05-01-2018,18:00,0.72514,R,ugm-3,22.57054,R,ugm-3,23.68241,R,ugm-3,37.91830,R,ugm-3,0.75183,R,ugm-3
05-01-2018,19:00,0.85698,R,ugm-3,24.67084,R,ugm-3,25.98486,R,ugm-3,39.36518,R,ugm-3,1.09357,R,ugm-3
05-01-2018,20:00,0.79106,R,ugm-3,21.81162,R,ugm-3,23.02456,R,ugm-3,40.76217,R,ugm-3,2.11879,R,ugm-3
05-01-2018,21:00,0.75810,R,ugm-3,24.49354,R,ugm-3,25.65594,R,ugm-3,34.82497,R,ugm-3,2.39218,R,ugm-3
05-01-2018,22:00,0.85698,R,ugm-3,16.91767,R,ugm-3,18.23169,R,ugm-3,43.05723,R,ugm-3,2.11879,R,ugm-3
05-01-2018,23:00,0.62626,R,ugm-3,12.71352,R,ugm-3,13.67377,R,ugm-3,49.54325,R,ugm-3,2.52888,R,ugm-3
05-01-2018,24:00,0.82402,R,ugm-3,12.73921,R,ugm-3,14.00269,R,ugm-3,38.71658,R,ugm-3,2.25549,R,ugm-3
06-01-2018,01:00,0.74803,R,ugm-3,15.04925,R,ugm-3,16.19621,R,ugm-3,36.12217,R,ugm-3,2.64370,R,ugm-3
06-01-2018,02:00,1.15504,R,ugm-3,7.73952,R,ugm-3,9.51057,R,ugm-3,27.00847,R,ugm-3,3.46416,R,ugm-3
06-01-2018,03:00,0.82503,R,ugm-3,3.11360,R,ugm-3,4.37863,R,ugm-3,27.14152,R,ugm-3,3.28183,R,ugm-3
06-01-2018,04:00,0.52802,R,ugm-3,3.09819,R,ugm-3,3.90781,R,ugm-3,43.00734,R,ugm-3,2.52975,R,ugm-3
06-01-2018,05:00,0.79203,R,ugm-3,4.95331,R,ugm-3,6.16774,R,ugm-3,46.10067,R,ugm-3,2.52975,R,ugm-3
06-01-2018,06:00,0.79203,R,ugm-3,3.63502,R,ugm-3,4.84945,R,ugm-3,54.73207,R,ugm-3,2.39300,R,ugm-3
06-01-2018,07:00,0.46202,R,ugm-3,2.06942,R,ugm-3,2.77784,R,ugm-3,53.63444,R,ugm-3,2.05114,R,ugm-3
06-01-2018,08:00,0.79203,R,ugm-3,2.97587,R,ugm-3,4.19030,R,ugm-3,42.10927,R,ugm-3,1.70929,R,ugm-3
06-01-2018,09:00,0.72603,R,ugm-3,3.07707,R,ugm-3,4.19030,R,ugm-3,45.90110,R,ugm-3,0.88883,R,ugm-3
06-01-2018,10:00,1.02304,R,ugm-3,5.87032,R,ugm-3,7.43896,R,ugm-3,49.64304,R,ugm-3,0.82046,R,ugm-3
06-01-2018,11:00,0.89103,R,ugm-3,4.09528,R,ugm-3,5.46151,R,ugm-3,55.82971,R,ugm-3,1.43580,R,ugm-3
06-01-2018,12:00,0.66003,R,ugm-3,3.74326,R,ugm-3,4.75528,R,ugm-3,60.07057,R,ugm-3,0.88883,R,ugm-3
06-01-2018,13:00,0.95704,R,ugm-3,4.08824,R,ugm-3,5.55568,R,ugm-3,61.86670,R,ugm-3,4.17066,R,ugm-3
06-01-2018,14:00,1.02304,R,ugm-3,3.28081,R,ugm-3,4.84945,R,ugm-3,66.45681,R,ugm-3,4.03392,R,ugm-3
06-01-2018,15:00,0.92404,R,ugm-3,2.96179,R,ugm-3,4.37863,R,ugm-3,67.85380,R,ugm-3,4.37578,R,ugm-3
06-01-2018,16:00,0.72603,R,ugm-3,3.45373,R,ugm-3,4.56695,R,ugm-3,68.75187,R,ugm-3,3.55532,R,ugm-3
06-01-2018,17:00,0.62702,R,ugm-3,3.51137,R,ugm-3,4.47279,R,ugm-3,67.80391,R,ugm-3,3.21346,R,ugm-3
06-01-2018,18:00,0.75903,R,ugm-3,5.23933,R,ugm-3,6.40315,R,ugm-3,63.71272,R,ugm-3,3.82880,R,ugm-3
06-01-2018,19:00,0.62702,R,ugm-3,8.21957,R,ugm-3,9.18099,R,ugm-3,61.11831,R,ugm-3,3.35020,R,ugm-3
06-01-2018,20:00,0.79203,R,ugm-3,6.45994,R,ugm-3,7.67437,R,ugm-3,62.31573,R,ugm-3,3.48695,R,ugm-3
06-01-2018,21:00,0.69303,R,ugm-3,6.61174,R,ugm-3,7.67437,R,ugm-3,59.32218,R,ugm-3,3.48695,R,ugm-3
06-01-2018,22:00,0.85803,R,ugm-3,8.05369,R,ugm-3,9.36932,R,ugm-3,56.72777,R,ugm-3,3.48695,R,ugm-3
06-01-2018,23:00,0.82503,R,ugm-3,6.69183,R,ugm-3,7.95686,R,ugm-3,59.22240,R,ugm-3,2.39300,R,ugm-3
06-01-2018,24:00,0.66003,R,ugm-3,5.95611,R,ugm-3,6.96814,R,ugm-3,61.06842,R,ugm-3,2.25626,R,ugm-3
07-01-2018,01:00,0.61678,R,ugm-3,5.65881,R,ugm-3,6.60452,R,ugm-3,62.53193,R,ugm-3,1.91506,R,ugm-3
07-01-2018,02:00,0.75996,R,ugm-3,3.69379,R,ugm-3,4.85904,R,ugm-3,63.52978,R,ugm-3,1.73267,R,ugm-3
07-01-2018,03:00,0.62779,R,ugm-3,4.03797,R,ugm-3,5.00056,R,ugm-3,64.11186,R,ugm-3,2.66741,R,ugm-3
07-01-2018,04:00,0.72691,R,ugm-3,3.31987,R,ugm-3,4.43446,R,ugm-3,64.26154,R,ugm-3,2.46222,R,ugm-3
07-01-2018,05:00,0.59475,R,ugm-3,3.56970,R,ugm-3,4.48164,R,ugm-3,63.31358,R,ugm-3,2.05185,R,ugm-3
07-01-2018,06:00,0.66083,R,ugm-3,3.65708,R,ugm-3,4.67034,R,ugm-3,63.91229,R,ugm-3,1.23111,R,ugm-3
07-01-2018,07:00,0.39650,R,ugm-3,3.73216,R,ugm-3,4.34011,R,ugm-3,62.76477,R,ugm-3,2.25704,R,ugm-3
07-01-2018,08:00,0.72691,R,ugm-3,4.02750,R,ugm-3,5.14209,R,ugm-3,60.32003,R,ugm-3,1.64148,R,ugm-3
07-01-2018,09:00,0.66083,R,ugm-3,5.59126,R,ugm-3,6.60452,R,ugm-3,55.97939,R,ugm-3,2.73580,R,ugm-3
07-01-2018,10:00,1.02429,R,ugm-3,5.41137,R,ugm-3,6.98192,R,ugm-3,56.92734,R,ugm-3,2.32543,R,ugm-3
07-01-2018,11:00,1.32166,R,ugm-3,4.43647,R,ugm-3,6.46299,R,ugm-3,57.87530,R,ugm-3,2.12025,R,ugm-3
07-01-2018,12:00,1.35470,R,ugm-3,4.19711,R,ugm-3,6.27429,R,ugm-3,58.72347,R,ugm-3,2.46222,R,ugm-3
07-01-2018,13:00,1.18950,R,ugm-3,3.83715,R,ugm-3,5.66102,R,ugm-3,62.16606,R,ugm-3,2.32543,R,ugm-3
07-01-2018,14:00,1.05733,R,ugm-3,3.94545,R,ugm-3,5.56666,R,ugm-3,64.01208,R,ugm-3,3.69333,R,ugm-3
07-01-2018,15:00,1.15646,R,ugm-3,5.72764,R,ugm-3,7.50084,R,ugm-3,61.06842,R,ugm-3,3.48815,R,ugm-3
07-01-2018,16:00,0.92516,R,ugm-3,7.78058,R,ugm-3,9.19915,R,ugm-3,56.62799,R,ugm-3,2.18864,R,ugm-3
07-01-2018,17:00,0.49562,R,ugm-3,8.06180,R,ugm-3,8.82175,R,ugm-3,57.67573,R,ugm-3,1.29951,R,ugm-3
07-01-2018,18:00,0.82604,R,ugm-3,7.08342,R,ugm-3,8.35000,R,ugm-3,61.26799,R,ugm-3,0.41037,R,ugm-3
07-01-2018,19:00,0.72691,R,ugm-3,4.82948,R,ugm-3,5.94407,R,ugm-3,64.36133,R,ugm-3,0.88913,R,ugm-3
07-01-2018,20:00,0.46258,R,ugm-3,5.84806,R,ugm-3,6.55734,R,ugm-3,61.86670,R,ugm-3,2.39383,R,ugm-3
07-01-2018,21:00,0.52867,R,ugm-3,6.17131,R,ugm-3,6.98192,R,ugm-3,62.11616,R,ugm-3,2.32543,R,ugm-3
07-01-2018,22:00,0.52867,R,ugm-3,7.96397,R,ugm-3,8.77457,R,ugm-3,60.07057,R,ugm-3,3.21456,R,ugm-3
07-01-2018,23:00,0.72691,R,ugm-3,7.80151,R,ugm-3,8.91610,R,ugm-3,61.41767,R,ugm-3,3.14617,R,ugm-3
07-01-2018,24:00,0.85908,R,ugm-3,6.32513,R,ugm-3,7.64237,R,ugm-3,63.46326,R,ugm-3,3.07778,R,ugm-3
08-01-2018,01:00,1.05862,R,ugm-3,5.37250,R,ugm-3,6.99570,R,ugm-3,65.59201,R,ugm-3,1.09470,R,ugm-3
08-01-2018,02:00,0.66164,R,ugm-3,3.94867,R,ugm-3,4.96317,R,ugm-3,66.78943,R,ugm-3,1.18592,R,ugm-3
08-01-2018,03:00,0.52931,R,ugm-3,2.63898,R,ugm-3,3.45058,R,ugm-3,68.60219,R,ugm-3,0.68418,R,ugm-3
08-01-2018,04:00,0.23157,R,ugm-3,2.19741,R,ugm-3,2.55249,R,ugm-3,69.15101,R,ugm-3,0.47893,R,ugm-3
08-01-2018,05:00,0.46315,R,ugm-3,2.31502,R,ugm-3,3.02517,R,ugm-3,69.15101,R,ugm-3,1.02628,R,ugm-3
08-01-2018,06:00,0.46315,R,ugm-3,2.69317,R,ugm-3,3.40331,R,ugm-3,68.85165,R,ugm-3,1.09470,R,ugm-3
08-01-2018,07:00,0.59547,R,ugm-3,2.91568,R,ugm-3,3.82873,R,ugm-3,68.45251,R,ugm-3,0.61577,R,ugm-3
08-01-2018,08:00,0.62856,R,ugm-3,2.72315,R,ugm-3,3.68692,R,ugm-3,69.25079,R,ugm-3,0.54735,R,ugm-3
08-01-2018,09:00,0.79397,R,ugm-3,3.27309,R,ugm-3,4.49048,R,ugm-3,69.00133,R,ugm-3,1.29995,R,ugm-3
08-01-2018,10:00,0.82705,R,ugm-3,4.30953,R,ugm-3,5.57765,R,ugm-3,68.45251,R,ugm-3,1.77888,R,ugm-3
08-01-2018,11:00,0.86013,R,ugm-3,4.77876,R,ugm-3,6.09760,R,ugm-3,68.70197,R,ugm-3,2.18939,R,ugm-3
08-01-2018,12:00,1.29019,R,ugm-3,6.38821,R,ugm-3,8.36648,R,ugm-3,67.05552,R,ugm-3,1.77888,R,ugm-3
08-01-2018,13:00,1.75334,R,ugm-3,6.95430,R,ugm-3,9.64272,R,ugm-3,66.00778,R,ugm-3,2.05255,R,ugm-3
08-01-2018,14:00,1.85259,R,ugm-3,13.75056,R,ugm-3,16.59115,R,ugm-3,56.62799,R,ugm-3,2.59990,R,ugm-3
08-01-2018,15:00,1.62101,R,ugm-3,21.52675,R,ugm-3,24.01226,R,ugm-3,45.00304,R,ugm-3,2.32623,R,ugm-3
08-01-2018,16:00,1.05862,R,ugm-3,13.12450,R,ugm-3,14.74769,R,ugm-3,46.69938,R,ugm-3,1.84730,R,ugm-3
08-01-2018,17:00,0.82705,R,ugm-3,11.49430,R,ugm-3,12.76242,R,ugm-3,39.81422,R,ugm-3,2.25781,R,ugm-3
08-01-2018,18:00,0.59547,R,ugm-3,9.29689,R,ugm-3,10.20994,R,ugm-3,33.52776,R,ugm-3,1.84730,R,ugm-3
08-01-2018,19:00,0.49623,R,ugm-3,18.85545,R,ugm-3,19.61632,R,ugm-3,27.59055,R,ugm-3,2.66832,R,ugm-3
08-01-2018,20:00,0.82705,R,ugm-3,18.06459,R,ugm-3,19.33271,R,ugm-3,28.48862,R,ugm-3,2.66832,R,ugm-3
08-01-2018,21:00,1.09170,R,ugm-3,19.69132,R,ugm-3,21.36524,R,ugm-3,26.84217,R,ugm-3,2.94200,R,ugm-3
08-01-2018,22:00,0.76088,R,ugm-3,9.51595,R,ugm-3,10.68262,R,ugm-3,37.36948,R,ugm-3,3.14725,R,ugm-3
08-01-2018,23:00,0.72780,R,ugm-3,5.78522,R,ugm-3,6.90116,R,ugm-3,40.46282,R,ugm-3,2.87358,R,ugm-3
08-01-2018,24:00,0.69472,R,ugm-3,4.74877,R,ugm-3,5.81399,R,ugm-3,40.41293,R,ugm-3,3.28409,R,ugm-3
09-01-2018,01:00,0.88326,R,ugm-3,4.83424,R,ugm-3,6.18855,R,ugm-3,36.12217,R,ugm-3,1.27758,R,ugm-3
09-01-2018,02:00,1.02679,R,ugm-3,6.19287,R,ugm-3,7.76726,R,ugm-3,30.58410,R,ugm-3,1.91638,R,ugm-3
09-01-2018,03:00,0.72869,R,ugm-3,8.78122,R,ugm-3,9.89852,R,ugm-3,24.64690,R,ugm-3,1.98482,R,ugm-3
09-01-2018,04:00,0.86118,R,ugm-3,10.85141,R,ugm-3,12.17187,R,ugm-3,20.65550,R,ugm-3,2.66924,R,ugm-3
09-01-2018,05:00,0.82806,R,ugm-3,13.45971,R,ugm-3,14.72938,R,ugm-3,18.41033,R,ugm-3,2.39547,R,ugm-3
09-01-2018,06:00,0.76181,R,ugm-3,12.32989,R,ugm-3,13.49798,R,ugm-3,19.65765,R,ugm-3,2.12170,R,ugm-3
09-01-2018,07:00,0.76181,R,ugm-3,10.57752,R,ugm-3,11.74562,R,ugm-3,22.00259,R,ugm-3,3.28522,R,ugm-3
09-01-2018,08:00,1.05991,R,ugm-3,11.68337,R,ugm-3,13.30854,R,ugm-3,20.15657,R,ugm-3,2.25859,R,ugm-3
09-01-2018,09:00,0.96054,R,ugm-3,14.72477,R,ugm-3,16.19758,R,ugm-3,17.76173,R,ugm-3,3.21678,R,ugm-3
09-01-2018,10:00,1.75548,R,ugm-3,15.77923,R,ugm-3,18.47093,R,ugm-3,16.36474,R,ugm-3,3.42210,R,ugm-3
09-01-2018,11:00,2.48417,R,ugm-3,16.60374,R,ugm-3,20.41274,R,ugm-3,15.56646,R,ugm-3,3.01145,R,ugm-3
09-01-2018,12:00,3.24598,R,ugm-3,18.13524,R,ugm-3,23.11234,R,ugm-3,14.16947,R,ugm-3,2.94301,R,ugm-3
09-01-2018,13:00,5.16707,R,ugm-3,22.86215,R,ugm-3,30.78488,R,ugm-3,8.88087,R,ugm-3,4.99627,R,ugm-3
09-01-2018,14:00,8.34680,R,ugm-3,26.55904,R,ugm-3,39.35728,R,ugm-3,5.83742,R,ugm-3,4.24340,R,ugm-3
09-01-2018,15:00,4.73648,R,ugm-3,23.38030,R,ugm-3,30.64279,R,ugm-3,7.48388,R,ugm-3,3.76431,R,ugm-3
09-01-2018,16:00,3.04724,R,ugm-3,23.74443,R,ugm-3,28.41681,R,ugm-3,6.68560,R,ugm-3,3.42210,R,ugm-3
09-01-2018,17:00,1.78860,R,ugm-3,26.24266,R,ugm-3,28.98514,R,ugm-3,3.44258,R,ugm-3,3.49054,R,ugm-3
09-01-2018,18:00,1.32489,R,ugm-3,28.18507,R,ugm-3,30.21654,R,ugm-3,1.19742,R,ugm-3,3.14833,R,ugm-3
09-01-2018,19:00,2.25231,R,ugm-3,30.59932,R,ugm-3,34.05281,R,ugm-3,-1.04774,R,ugm-3,3.55899,R,ugm-3
09-01-2018,20:00,7.41937,R,ugm-3,32.95400,R,ugm-3,44.33022,R,ugm-3,-1.64645,R,ugm-3,3.76431,R,ugm-3
09-01-2018,21:00,10.99657,R,ugm-3,33.24713,R,ugm-3,50.10831,R,ugm-3,-1.64645,R,ugm-3,4.03808,R,ugm-3
09-01-2018,22:00,12.58644,R,ugm-3,33.31952,R,ugm-3,52.61846,R,ugm-3,-1.64645,R,ugm-3,3.42210,R,ugm-3
09-01-2018,23:00,12.78517,R,ugm-3,33.01480,R,ugm-3,52.61846,R,ugm-3,-1.69634,R,ugm-3,2.66924,R,ugm-3
09-01-2018,24:00,5.99512,R,ugm-3,34.42741,R,ugm-3,43.61980,R,ugm-3,-0.89806,R,ugm-3,3.42210,R,ugm-3
10-01-2018,01:00,2.34349,R,ugm-3,33.23137,R,ugm-3,36.82466,R,ugm-3,0.33262,R,ugm-3,4.92952,R,ugm-3
10-01-2018,02:00,2.60879,R,ugm-3,32.76131,R,ugm-3,36.76139,R,ugm-3,-0.59871,R,ugm-3,5.75110,R,ugm-3
10-01-2018,03:00,2.98463,R,ugm-3,31.82120,R,ugm-3,36.39757,R,ugm-3,-1.34710,R,ugm-3,5.20338,R,ugm-3
10-01-2018,04:00,3.28309,R,ugm-3,32.21775,R,ugm-3,37.25175,R,ugm-3,-1.44688,R,ugm-3,4.79259,R,ugm-3
10-01-2018,05:00,3.61472,R,ugm-3,33.98708,R,ugm-3,39.52956,R,ugm-3,-1.64645,R,ugm-3,5.20338,R,ugm-3
10-01-2018,06:00,3.54839,R,ugm-3,31.43133,R,ugm-3,36.87212,R,ugm-3,-0.64860,R,ugm-3,3.62867,R,ugm-3
10-01-2018,07:00,1.82394,R,ugm-3,26.81491,R,ugm-3,29.61158,R,ugm-3,-0.04989,R,ugm-3,1.64317,R,ugm-3
10-01-2018,08:00,1.69129,R,ugm-3,24.02868,R,ugm-3,26.62195,R,ugm-3,0.94796,R,ugm-3,1.64317,R,ugm-3
10-01-2018,09:00,1.29334,R,ugm-3,21.79159,R,ugm-3,23.77468,R,ugm-3,6.28646,R,ugm-3,1.91704,R,ugm-3
10-01-2018,10:00,1.95659,R,ugm-3,15.03263,R,ugm-3,18.03270,R,ugm-3,20.85507,R,ugm-3,1.57471,R,ugm-3
10-01-2018,11:00,1.69129,R,ugm-3,12.16506,R,ugm-3,14.75834,R,ugm-3,30.93335,R,ugm-3,1.50624,R,ugm-3
10-01-2018,12:00,3.38258,R,ugm-3,20.58122,R,ugm-3,25.76777,R,ugm-3,29.48647,R,ugm-3,1.23238,R,ugm-3
10-01-2018,13:00,3.81369,R,ugm-3,16.59838,R,ugm-3,22.44596,R,ugm-3,44.10497,R,ugm-3,2.19090,R,ugm-3
10-01-2018,14:00,1.52548,R,ugm-3,8.05350,R,ugm-3,10.39253,R,ugm-3,58.52390,R,ugm-3,1.57471,R,ugm-3
10-01-2018,15:00,1.12753,R,ugm-3,10.08731,R,ugm-3,11.81616,R,ugm-3,47.94669,R,ugm-3,1.16392,R,ugm-3
10-01-2018,16:00,2.48719,R,ugm-3,36.38029,R,ugm-3,40.19393,R,ugm-3,25.89421,R,ugm-3,0.54773,R,ugm-3
10-01-2018,17:00,1.89026,R,ugm-3,45.88482,R,ugm-3,48.78318,R,ugm-3,16.31485,R,ugm-3,1.23238,R,ugm-3
10-01-2018,18:00,1.12753,R,ugm-3,26.60146,R,ugm-3,28.33031,R,ugm-3,28.83787,R,ugm-3,1.84857,R,ugm-3
10-01-2018,19:00,0.89539,R,ugm-3,7.16889,R,ugm-3,8.54180,R,ugm-3,38.06798,R,ugm-3,1.30085,R,ugm-3
10-01-2018,20:00,0.89539,R,ugm-3,3.51490,R,ugm-3,4.88781,R,ugm-3,47.49766,R,ugm-3,1.02698,R,ugm-3
10-01-2018,21:00,0.89539,R,ugm-3,2.70818,R,ugm-3,4.08108,R,ugm-3,33.62755,R,ugm-3,0.20540,R,ugm-3
10-01-2018,22:00,0.56376,R,ugm-3,2.50484,R,ugm-3,3.36927,R,ugm-3,31.23271,R,ugm-3,1.09545,R,ugm-3
10-01-2018,23:00,0.82906,R,ugm-3,3.56914,R,ugm-3,4.84036,R,ugm-3,30.08518,R,ugm-3,1.23238,R,ugm-3
10-01-2018,24:00,1.02804,R,ugm-3,4.87750,R,ugm-3,6.45381,R,ugm-3,24.49722,R,ugm-3,1.16392,R,ugm-3